Regional Weather Roundup
Issued by NWS

Home | Current Version | Previous Version | Graphics & Text | Print | Product List | Glossary On
Versions: 1 2 3 4 5 6 7 8 9 10 11 12 13 14 15 16 17 18 19 20 21 22 23 24 25 26 27 28 29 30 31 32 33 34 35 36 37 38 39 40 41 42 43 44 45 46 47 48 49 50
000
ASUS45 KBOI 040710
RWRID
WEATHER ROUNDUP FOR IDAHO
NATIONAL WEATHER SERVICE BOISE ID
1200 AM MST WED MAR 04 2015

NOTE: "FAIR" INDICATES FEW OR NO CLOUDS BELOW 12000 FEET
WITH NO SIGNIFICANT WEATHER AND/OR OBSTRUCTIONS TO VISIBILITY

IDZ012-014-040800-
SOUTHWEST IDAHO


CITY           SKY/WX    TMP DP  RH WIND       PRES   REMARKS
BOISE          CLEAR     29  15  56 W9        30.11R WCI  20
CALDWELL       CLEAR     27  10  50 W10       30.15R WCI  17
MOUNTAIN HOME  CLEAR     27  14  56 NW15      30.09R WCI  16
$$

IDZ016-017-040800-
SOUTHCENTRAL IDAHO


CITY           SKY/WX    TMP DP  RH WIND       PRES   REMARKS
BURLEY         CLEAR     28  11  48 SW10      30.00R WCI  19
JEROME         CLEAR     27  11  51 SW12      30.01R WCI  17
TWIN FALLS     CLEAR     30  11  45 SW17      30.02R WCI  18
$$

IDZ019>023-040800-
SOUTHEAST IDAHO


CITY           SKY/WX    TMP DP  RH WIND       PRES   REMARKS
IDAHO FALLS    CLEAR     18  12  77 N6        30.00R WCI  10
POCATELLO      PTCLDY    25  15  66 SW13      30.00R WCI  14
REXBURG        MOCLDY    17   8  67 E5        30.01R WCI  10
$$

IDZ006-010-011-018-031-032-040800-
CENTRAL IDAHO MOUNTAINS


CITY           SKY/WX    TMP DP  RH WIND       PRES   REMARKS
MCCALL         CLEAR     19   9  65 N8        30.05R WCI   9
HAILEY         CLEAR     23  16  74 NW6       29.97R WCI  16
STANLEY          N/A     15  -2  46 CALM      29.99R
SALMON         MOCLDY    21   3  45 CALM      30.10R
CHALLIS        CLEAR     21   3  45 NW6       30.03R WCI  13
$$

IDZ002-004-006-007-026-040800-
NORTHERN IDAHO


CITY           SKY/WX    TMP DP  RH WIND       PRES   REMARKS
LEWISTON       CLEAR     29  18  63 SE6       30.24R WCI  23
LOWELL           N/A     26  21  81 CALM      30.28R
COEUR D`ALENE  CLEAR     25  12  58 CALM      30.15S
MULLAN PASS    CLEAR     11   5  77 VRB6      29.99R WCI   1
$$



USA.gov is the U.S. government's official web portal to all federal, state and local government web resources and services.